Regional Weather Roundup
Issued by NWS Bismarck, ND

Home | Current Version | Previous Version | Text Only | Print | Product List | Glossary On
Versions: 1 2 3 4 5 6 7 8 9 10 11 12 13 14 15 16 17 18 19 20 21 22 23 24 25 26 27 28 29 30 31 32 33 34 35 36 37 38 39 40 41 42 43 44 45 46 47 48 49 50
187
ASUS43 KBIS 220310
RWRBIS

NWR BROADCAST TEXT
NATIONAL WEATHER SERVICE BISMARCK ND
1000 PM CDT THU MAY 21 2015

NOTE: "FAIR" INDICATES FEW OR NO CLOUDS BELOW 12,000 FEET WITH NO
SIGNIFICANT WEATHER AND/OR OBSTRUCTIONS TO VISIBILITY.


CITY           SKY/WX    TMP DP  RH WIND       PRES   REMARKS
WILLISTON      CLEAR     62  33  33 E9        30.09R
MINOT          CLEAR     57  39  51 E5        30.11R
MINOT AFB      CLEAR     61  39  43 SE6       30.10R
BISMARCK       MOCLDY    59  42  53 E8        30.11R
DICKINSON      CLEAR     54  34  46 S8        30.11R
GARRISON         N/A     63  36  36 E5        30.11R
HETTINGER ARPT CLEAR     55  34  45 SE6       30.14R
JAMESTOWN      CLEAR     56  44  64 E6        30.12R
BEACH          FAIR      48  36  61 SE8       30.13R
CARRINGTON     FAIR      55  43  62 CALM      30.14R
CROSBY         FAIR      55  39  54 SE9       30.11R
HARVEY         FAIR      55  37  50 E6        30.13R
HAZEN          FAIR      59  36  41 E6        30.12R
LINTON         CLOUDY    59  39  47 CALM      30.12R
MANDAN         FAIR      64  36  34 E9        30.12R
OAKES            N/A     57  43  58 E8        30.12R
STANLEY        FAIR      61  36  39 E8        30.13R
WATFORD CITY   FAIR      57  32  38 SE6       30.08R
$$

CITY           SKY/WX    TMP DP  RH WIND       PRES   REMARKS
GRAND FORKS    CLEAR     53  40  61 NE5       30.11R
GRAND FORKS AF CLEAR     51  41  69 CALM      30.12R
DEVILS LAKE    CLEAR     61  30  31 CALM      30.12R
FARGO          CLEAR     55  43  63 N6        30.11R
CANDO          FAIR      57  32  38 E3        30.13R
CAVALIER       FAIR      55  46  71 CALM      30.12R HAZE
GRAFTON        FAIR      57  41  54 CALM      30.12S
LANGDON        FAIR      55  34  44 E6        30.13R
ROLLA          FAIR      54  36  50 SW3       30.14R
WALHALLA       FAIR      55  37  50 CALM      30.12R
$$

CITY           SKY/WX    TMP DP  RH WIND       PRES   REMARKS
ABERDEEN       CLEAR     60  43  53 E3        30.11R
MOBRIDGE       CLEAR     59  41  51 S3        30.10R
BUFFALO          N/A     54  31  41 SE13      30.07R
RAPID CITY     CLOUDY    54  43  66 S5        30.13S
GLASGOW        CLEAR     59  32  36 SE10      30.04S
SIDNEY         CLEAR     61  36  39 CALM      30.09R
WOLF POINT     CLEAR     64  34  32 SE5       30.07R
GLENDIVE       CLEAR     63  32  31 SE8       30.10R
MILES CITY     CLEAR     62  25  24 SE9       30.05R
BAKER          CLEAR     53  32  44 SE9       30.12R
$$

CITY           SKY/WX    TMP DP  RH WIND       PRES   REMARKS
BILLINGS       PTCLDY    60  40  47 E16       29.99R
GREAT FALLS    CLEAR     58  43  57 S5        29.94R
REGINA         PTCLDY    64  27  24 SW8       30.08S
ESTEVAN        PTCLDY    59  39  47 SE10      30.11R
$$




USA.gov is the U.S. government's official web portal to all federal, state and local government web resources and services.